This is the latest recevied weather packets stored in our database for station/object N4HAC. If no packets are shown the sender has not sent any weather packets the latest 10 day(s).
| Time | Temp. | Humidity | Pressure | Rain* | Wind** | Luminosity | Snow |
|---|---|---|---|---|---|---|---|
| 1777901012 | 15.56° C | 54% | 1008.9 hPa | 0 mm | - | 501 W/m² | - |
| 1777900709 | 14.44° C | 59% | 1008.8 hPa | 0 mm | - | 490 W/m² | - |
| 1777900406 | 13.89° C | 59% | 1008.9 hPa | 0 mm | - | 476 W/m² | - |
| 1777900103 | 14.44° C | 59% | 1008.9 hPa | 0 mm | - | 452 W/m² | - |
| 1777899800 | 13.89° C | 66% | 1008.7 hPa | 0 mm | - | 425 W/m² | - |
| 1777899497 | 13.33° C | 66% | 1008.9 hPa | 0 mm | - | 384 W/m² | - |
| 1777899194 | 12.78° C | 67% | 1009.4 hPa | 0 mm | - | 350 W/m² | - |
| 1777898892 | 12.22° C | 68% | 1009 hPa | 0 mm | - | 318 W/m² | - |
| 1777898589 | 11.11° C | 69% | 1009.1 hPa | 0 mm | - | 299 W/m² | - |
| 1777898286 | 11.11° C | 67% | 1009.6 hPa | 0 mm | - | 283 W/m² | - |
| 1777897983 | 11.11° C | 67% | 1009.2 hPa | 0 mm | - | 282 W/m² | - |
| 1777897679 | 11.11° C | 63% | 1009.5 hPa | 0 mm | - | 135 W/m² | - |
| 1777897375 | 12.22° C | 66% | 1009.4 hPa | 0 mm | - | 217 W/m² | - |
| 1777897071 | 11.67° C | 65% | 1009.6 hPa | 0 mm | - | 288 W/m² | - |
| 1777896768 | 11.11° C | 70% | 1009.4 hPa | 0 mm | - | 254 W/m² | - |
| 1777896466 | 11.11° C | 72% | 1009.5 hPa | 0 mm | - | 242 W/m² | - |
| 1777896163 | 9.44° C | 77% | 1009.7 hPa | 0 mm | - | 209 W/m² | - |
| 1777895861 | 9.44° C | 80% | 1009.7 hPa | 0 mm | - | 213 W/m² | - |
| 1777895558 | 9.44° C | 81% | 1009.5 hPa | 0 mm | - | 81 W/m² | - |
| 1777895255 | 9.44° C | 81% | 1009.6 hPa | 0 mm | - | 151 W/m² | - |
| 1777894953 | 8.89° C | 84% | 1009.5 hPa | 0 mm | - | 120 W/m² | - |
| 1777894650 | 8.33° C | 84% | 1009.6 hPa | 0 mm | - | 136 W/m² | - |
| 1777894347 | 7.78° C | 88% | 1009.9 hPa | 0 mm | - | 131 W/m² | - |
| 1777894044 | 7.78° C | 87% | 1009.7 hPa | 0 mm | - | 117 W/m² | - |
| 1777893740 | 7.78° C | 91% | 1009.7 hPa | 0 mm | - | 104 W/m² | - |
* Rain latest hour (hover to see other rain measurements)
** Current wind speed in m/s (hover to see current wind gust speed)